Vertical_Velocity
-3 -3 -2 -1 -1 -2 -1 -1 -0 -2 -1 -0 -3 -1 -3 -1 2 1 3 1 -2 1 3 1 1 -0 1 0 -0 -0 1 2 -0 1 3 1 3 -0 2 1 -1 1 -1
-3 0 0 -1 0 -1 -1 -1 -2 -1 -3 -1 -1 -1 1 0 1 1 1 0 -1 -2 1 1 1 2 2 0 1 1 -1 -1 1 1 2 2 0 1 -0 -0 -1 0 0
-1 -1 -1 -1 -0 -1 -1 0 -1 -0 -2 -3 -1 -2 -1 -1 -0 -2 -2 2 -2 -1 -2 -1 -0 1 2 0 1 -2 -0 2 -0 1 1 0 -1 2 0 1 1 -1 -2
-1 -1 0 0 -1 -2 0 0 1 -1 -2 -2 -4 -1 -1 -1 -0 1 1 -0 -1 -0 2 -1 1 0 1 2 1 1 1 0 -1 0 2 1 2 -1 2 -0 -1 -0 -0
-1 0 1 1 -1 -3 -2 -0 0 -1 -3 -1 -2 -2 -1 -1 -1 -0 1 1 0 -1 -1 0 2 -1 3 1 1 1 1 -0 4 4 3 -3 1 1 1 1 -1 -1 1
2 1 1 1 -1 -2 -1 -1 -3 -0 -1 1 -0 -2 -1 -3 -3 -2 -3 0 0 -2 -0 1 2 4 2 3 1 2 1 2 2 1 2 0 -0 -0 1 -1 2 -2 -2
-0 1 -2 -1 0 -2 -1 -1 -2 -2 2 -1 4 4 0 0 4 1 1 5 5 -3 -2 -1 -5 2 4 2 4 2 1 1 2 1 1 2 1 2 1 -1 1 -2 -0
2 2 1 1 -0 -2 1 -1 -0 -1 0 -1 -2 3 -4 22 5 3 3 1 6 -4 -2 1 2 3 3 1 3 1 2 2 -0 2 0 1 1 1 0 -0 -0 -1 1
0 2 2 1 1 0 -1 -1 -0 -0 2 -1 1 3 -4 6 15 35 26 9 18 1 0 0 1 7 2 2 -0 2 3 4 6 2 4 -1 -0 -2 2 1 -2 3 1
-3 -2 -1 -2 -0 0 0 -1 -0 4 1 1 0 10 2 2 10 1 -1 -0 6 13 -2 -2 2 5 -0 0 -0 2 1 3 -3 -0 -0 4 -2 3 1 -2 2 -0 -1
-1 -3 0 -1 1 -0 0 -3 -0 1 2 -2 -1 0 -4 0 -2 -3 -1 -1 24 7 3 -1 0 4 -2 -2 3 -0 1 4 4 -0 5 -4 1 2 -2 1 0 0 1
0 -2 -1 1 -1 -1 -1 -1 -2 -0 0 2 -0 -0 -2 3 3 1 0 -3 10 14 6 9 1 3 -1 -1 0 5 0 -1 -5 -0 -3 3 1 -2 -0 0 1 -1 0
0 -1 -5 -3 -3 -2 -1 -1 -1 0 1 1 0 -1 1 3 1 -1 -4 -2 -5 30 1 1 3 2 3 2 3 2 -4 -1 -3 1 2 2 -1 -1 -2 -1 -3 1 1
0 -2 -2 -2 -0 -1 -3 -1 -2 0 1 1 -1 2 -2 -0 3 1 -1 3 -3 1 -3 0 -1 -2 -2 0 2 -1 -1 0 3 -5 -1 -2 -1 -0 0 -0 -5 -1 -2
-1 -3 -1 -2 1 -2 -5 -1 2 -1 1 1 0 -2 -6 11 1 1 2 -0 10 2 -2 -2 1 1 -4 9 2 5 2 1 1 -0 1 -1 -0 -0 2 1 -2 -1 -2
0 -3 -1 -1 -1 -2 -3 -2 -1 -1 1 1 1 1 2 4 20 0 1 7 3 3 -1 -5 4 2 -0 -2 4 0 1 3 1 2 -3 0 -2 -0 2 1 -2 -0 -0
0 -1 -0 -1 -1 -3 -3 -2 -2 -3 -1 1 -1 -0 1 -2 8 20 21 14 11 6 1 -7 7 3 1 0 3 0 2 2 1 3 -1 -1 1 -1 2 1 -1 0 1
2 -1 -0 -0 -0 -3 -2 -2 -1 -1 -2 2 -0 -2 1 -2 -1 -4 0 5 -1 -0 -1 -4 -4 3 3 1 -2 3 -1 4 1 2 4 -0 1 1 -1 2 2 0 -1
1 0 -1 0 -1 -3 -1 -1 -2 -2 -3 0 2 -1 -1 1 -1 -1 -3 -1 0 2 -1 -2 -6 4 2 1 1 2 0 1 -0 3 6 -1 -2 -1 1 -1 1 0 1
-0 1 1 -0 -1 -4 -1 -2 -1 -1 -1 -2 0 2 -1 -1 1 1 1 1 1 0 2 2 -4 2 5 -0 2 -0 0 -3 1 -1 -1 2 -0 -0 0 0 -0 -1 -1
-2 3 1 0 -1 -3 -1 -1 -1 1 0 1 -1 2 -0 1 0 1 1 -2 21 4 1 -1 -3 1 -1 1 -1 -2 -2 -1 -0 -0 3 3 6 3 2 5 5 3 -0
0 2 1 -1 -2 -1 -1 1 1 -1 1 1 -1 0 2 3 1 1 0 51 1 1 5 3 -3 0 5 5 4 1 -0 -0 1 2 4 -2 -2 1 5 2 0 2 1
2 1 1 -1 -1 -1 -1 1 -1 -0 -2 -1 -1 0 0 0 3 -1 17 -1 -3 2 7 2 3 -4 6 3 6 7 3 3 2 6 -0 -1 1 -1 -2 1 -1 -2 2
0 0 1 0 -2 -1 -1 -1 -2 -1 -2 -1 -2 -1 2 1 -1 0 3 3 25 -4 -3 0 6 -1 3 4 8 6 6 2 1 3 -1 -0 -0 1 -0 1 2 2 2
-1 1 -0 -1 -1 -1 -2 -1 -2 -3 -3 -1 0 0 -1 -0 1 -1 -0 -4 -2 -6 -1 -2 6 6 -2 1 10 9 6 3 -4 4 1 1 2 2 -0 0 -1 0 3
-1 2 -0 -0 -1 -1 -2 -1 -3 -2 -4 -3 1 2 1 -1 -4 -3 -1 1 1 31 5 6 5 5 1 3 5 3 5 0 2 2 1 0 2 2 1 2 3 3 2
Height
5810 5809 5808 5807 5805 5804 5803 5802 5800 5800 5800 5801 5800 5800 5800 5801 5803 5806 5809 5811 5812 5813 5815 5817 5820 5823 5825 5827 5830 5832 5834 5835 5837 5838 5839 5841 5841 5841 5842 5842 5842 5842 5842
5805 5803 5801 5801 5801 5801 5800 5798 5796 5796 5795 5796 5796 5797 5797 5797 5799 5801 5804 5807 5809 5811 5812 5814 5818 5820 5823 5825 5827 5829 5831 5832 5834 5836 5837 5839 5839 5840 5840 5840 5841 5842 5842
5804 5802 5799 5797 5796 5795 5794 5794 5792 5791 5790 5791 5791 5792 5793 5794 5795 5796 5798 5801 5804 5806 5809 5812 5815 5818 5820 5823 5825 5827 5829 5830 5832 5834 5836 5837 5838 5839 5839 5839 5840 5840 5840
5801 5799 5797 5795 5793 5790 5789 5788 5788 5787 5787 5786 5786 5787 5788 5788 5789 5790 5791 5793 5797 5800 5804 5808 5811 5815 5818 5820 5823 5825 5826 5828 5830 5832 5833 5835 5836 5837 5838 5838 5838 5839 5839
5798 5795 5793 5791 5789 5787 5785 5784 5784 5783 5783 5782 5782 5782 5782 5783 5783 5784 5785 5787 5791 5794 5798 5802 5806 5810 5814 5817 5820 5822 5824 5826 5828 5829 5831 5833 5835 5836 5836 5837 5837 5837 5837
5794 5791 5789 5787 5785 5783 5780 5780 5779 5778 5777 5777 5777 5777 5777 5777 5777 5778 5779 5781 5782 5787 5791 5796 5801 5806 5811 5814 5817 5819 5820 5822 5825 5827 5829 5831 5834 5834 5834 5834 5835 5837 5837
5791 5789 5787 5785 5783 5781 5778 5776 5774 5772 5771 5772 5774 5773 5770 5771 5770 5773 5773 5773 5775 5780 5785 5790 5795 5801 5806 5809 5812 5814 5817 5820 5823 5825 5827 5828 5830 5831 5832 5832 5833 5834 5834
5787 5785 5784 5782 5779 5777 5775 5772 5770 5768 5766 5766 5765 5764 5764 5767 5762 5764 5768 5770 5771 5776 5780 5785 5790 5796 5801 5804 5807 5811 5814 5817 5820 5823 5823 5825 5827 5828 5830 5830 5831 5832 5833
5782 5780 5779 5777 5774 5772 5770 5768 5766 5764 5762 5762 5760 5758 5756 5755 5756 5759 5767 5767 5767 5769 5776 5780 5786 5793 5797 5801 5804 5807 5812 5815 5817 5817 5820 5822 5824 5826 5827 5828 5829 5829 5830
5778 5776 5775 5772 5768 5766 5765 5763 5762 5760 5758 5757 5755 5753 5752 5752 5755 5758 5762 5760 5765 5766 5772 5776 5782 5791 5796 5797 5800 5803 5808 5811 5813 5813 5817 5820 5821 5823 5824 5825 5826 5827 5827
5774 5772 5770 5767 5765 5762 5760 5759 5758 5756 5755 5753 5750 5748 5747 5746 5748 5751 5755 5759 5764 5765 5770 5773 5779 5788 5792 5794 5797 5799 5804 5808 5809 5811 5815 5816 5819 5820 5821 5822 5823 5824 5824
5769 5768 5765 5762 5760 5758 5757 5755 5754 5752 5750 5749 5748 5744 5742 5742 5742 5744 5746 5754 5761 5764 5768 5770 5778 5785 5789 5790 5793 5796 5800 5804 5804 5806 5810 5814 5815 5817 5819 5819 5820 5821 5821
5765 5762 5760 5757 5755 5753 5752 5750 5750 5749 5747 5745 5743 5741 5737 5735 5734 5737 5742 5749 5757 5758 5765 5766 5776 5782 5786 5787 5789 5792 5795 5798 5801 5805 5808 5811 5812 5814 5815 5816 5817 5817 5819
5760 5758 5757 5754 5751 5750 5747 5746 5745 5745 5742 5741 5739 5737 5732 5727 5726 5729 5736 5745 5752 5757 5761 5763 5772 5778 5782 5783 5785 5787 5791 5795 5798 5801 5805 5806 5808 5811 5812 5812 5814 5815 5816
5756 5754 5753 5751 5749 5746 5744 5743 5742 5741 5738 5736 5735 5733 5728 5721 5723 5726 5735 5742 5750 5753 5757 5760 5767 5774 5777 5779 5781 5784 5788 5792 5795 5797 5800 5803 5805 5806 5808 5808 5810 5810 5812
5751 5750 5749 5748 5745 5743 5741 5738 5737 5737 5735 5733 5731 5731 5728 5727 5726 5729 5734 5741 5745 5749 5753 5755 5762 5769 5773 5776 5778 5780 5782 5787 5790 5793 5795 5799 5800 5801 5803 5804 5805 5805 5806
5746 5745 5745 5744 5741 5738 5736 5734 5733 5732 5731 5729 5728 5728 5727 5726 5725 5731 5733 5736 5740 5745 5749 5751 5755 5764 5769 5773 5774 5776 5780 5782 5785 5788 5789 5793 5795 5796 5797 5798 5799 5800 5801
5741 5741 5740 5739 5735 5734 5733 5730 5728 5728 5727 5724 5724 5725 5725 5724 5725 5726 5729 5733 5737 5742 5746 5748 5751 5759 5766 5770 5771 5773 5776 5778 5779 5782 5783 5787 5789 5790 5792 5793 5794 5795 5795
5737 5736 5735 5734 5731 5730 5729 5727 5725 5724 5722 5719 5718 5720 5722 5722 5723 5725 5726 5730 5735 5739 5741 5744 5747 5752 5760 5763 5766 5768 5770 5772 5774 5776 5778 5779 5783 5784 5785 5787 5788 5789 5790
5732 5731 5730 5730 5728 5727 5725 5724 5722 5720 5718 5716 5714 5714 5717 5718 5720 5722 5724 5728 5732 5734 5737 5740 5743 5746 5753 5755 5759 5760 5763 5765 5768 5770 5772 5774 5775 5777 5778 5780 5782 5783 5783
5726 5726 5725 5726 5724 5724 5723 5722 5720 5717 5714 5713 5711 5710 5711 5714 5716 5718 5722 5724 5726 5731 5734 5734 5736 5740 5746 5749 5752 5754 5756 5758 5762 5764 5765 5767 5769 5769 5770 5772 5775 5776 5776
5721 5721 5721 5721 5721 5721 5720 5719 5717 5715 5712 5709 5708 5707 5707 5709 5711 5714 5716 5718 5722 5724 5727 5730 5732 5734 5737 5742 5745 5748 5749 5755 5757 5756 5758 5758 5761 5761 5763 5764 5766 5768 5768
5717 5716 5716 5717 5717 5717 5717 5715 5714 5712 5710 5707 5706 5705 5705 5706 5707 5709 5709 5713 5715 5718 5720 5725 5726 5729 5731 5735 5739 5742 5744 5747 5748 5750 5749 5750 5751 5753 5753 5755 5757 5758 5759
5711 5711 5712 5712 5713 5713 5713 5712 5710 5709 5707 5705 5704 5703 5702 5702 5704 5705 5705 5705 5708 5713 5716 5720 5721 5724 5724 5729 5732 5735 5738 5740 5738 5744 5742 5743 5744 5745 5745 5747 5748 5749 5751
5705 5705 5707 5708 5709 5709 5710 5709 5708 5706 5704 5703 5702 5700 5699 5698 5697 5698 5697 5698 5701 5706 5710 5713 5716 5720 5720 5723 5727 5729 5731 5732 5732 5735 5735 5735 5736 5737 5738 5739 5740 5742 5743
5699 5699 5702 5703 5704 5705 5706 5706 5706 5704 5702 5700 5699 5698 5696 5695 5694 5693 5693 5692 5695 5699 5704 5706 5711 5714 5716 5718 5720 5721 5723 5723 5724 5725 5726 5726 5729 5730 5731 5732 5735 5735 5736